Location: Alphen aan den Rijn
(52.1277°N, 4.6689°E)
Time: 05:44:29
(UTC+02:00)

Envisat - Pass Details

Date: 04 March 2018
Orbit: 764 x 766 km, 98.2° (Epoch: 21 June)

Event Time Altitude Azimuth Distance (km) Brightness Sun altitude
Rises 21:26:54 0° 211° (SSW) 3,221 6.3 -27.7°
Reaches altitude 10° 21:29:58 10° 231° (SW) 2,301 5.7 -28.1°
Maximum altitude 21:33:18 17° 273° (W) 1,842 5.6 -28.6°
Drops below altitude 10° 21:36:40 10° 314° (NW) 2,312 6.4 -29.0°
Sets 21:39:46 0° 334° (NNW) 3,245 7.1 -29.4°
